KHB103 UHSS-UHPP

Flight info

Callsign KHB103
Flight time 1h 42m
Altitude 37000
Route ODEKO7 ODEKO G103 PAKLI T564 NAMUL P176 UB T577 SAMIK SAMIK5P
Aircraft A320/M-SDE3FGHIRWY/LB1

Departure

Time 2026-05-04 07:39
Airport Yuzhno-Sakhalinsk International Airport (UHSS)

Arrival

Time 2026-05-04 09:21
Airport Yelizovo Airport (UHPP)
Time Latitude Longitude Altitude Speed Heading
2026-05-04 07:31 46.88636 142.72111 85 ft 0 kts 205°
2026-05-04 07:34 46.88630 142.72107 81 ft 2 kts 205°
2026-05-04 07:34 46.88611 142.72098 83 ft 4 kts 192°
2026-05-04 07:34 46.88581 142.72095 83 ft 5 kts 182°
2026-05-04 07:34 46.88540 142.72093 82 ft 7 kts 181°
2026-05-04 07:35 46.88484 142.72092 84 ft 10 kts 181°
2026-05-04 07:35 46.88412 142.72089 72 ft 10 kts 181°
2026-05-04 07:35 46.88331 142.72088 72 ft 13 kts 180°
2026-05-04 07:35 46.88236 142.72086 74 ft 14 kts 181°
2026-05-04 07:36 46.88136 142.72083 71 ft 11 kts 181°
2026-05-04 07:36 46.88051 142.72081 73 ft 7 kts 180°
2026-05-04 07:38 46.88084 142.71731 86 ft 50 kts
2026-05-04 07:38 46.88643 142.71748 81 ft 108 kts
2026-05-04 07:38 46.89539 142.71768 89 ft 148 kts
2026-05-04 07:38 46.90580 142.71783 640 ft 141 kts
2026-05-04 07:39 46.91537 142.71805 1272 ft 140 kts
2026-05-04 07:39 46.92576 142.71837 1544 ft 160 kts
2026-05-04 07:39 46.93770 142.71880 1809 ft 183 kts
2026-05-04 07:39 46.95126 142.71925 2046 ft 208 kts
2026-05-04 07:40 46.96660 142.71969 2398 ft 232 kts
2026-05-04 07:40 46.98299 142.72008 3070 ft 243 kts
2026-05-04 07:40 46.99996 142.72046 4008 ft 244 kts
2026-05-04 07:40 47.01701 142.71983 4947 ft 248 kts 356°
2026-05-04 07:41 47.03348 142.71110 5914 ft 258 kts 335°
2026-05-04 07:41 47.04703 142.69314 6744 ft 272 kts 311°
2026-05-04 07:41 47.05508 142.66734 7519 ft 287 kts 285°
2026-05-04 07:41 47.05505 142.63786 8322 ft 296 kts 258°
2026-05-04 07:42 47.04624 142.61055 9155 ft 301 kts 231°
2026-05-04 07:42 47.03013 142.59123 9949 ft 302 kts 205°
2026-05-04 07:42 47.00993 142.58396 10705 ft 301 kts 179°
2026-05-04 07:42 46.98964 142.59027 11427 ft 302 kts 154°
2026-05-04 07:43 46.97017 142.60436 11653 ft 323 kts 155°
2026-05-04 07:43 46.94894 142.61813 11789 ft 344 kts 155°
2026-05-04 07:43 46.92651 142.63265 12073 ft 358 kts 156°
2026-05-04 07:43 46.90378 142.64834 12635 ft 364 kts 152°
2026-05-04 07:44 46.88188 142.66724 13259 ft 368 kts 147°
2026-05-04 07:44 46.86061 142.68815 13533 ft 370 kts 145°
2026-05-04 07:44 46.83924 142.70906 13581 ft 369 kts 153°
2026-05-04 07:44 46.81607 142.72516 13588 ft 369 kts 151°
2026-05-04 07:45 46.79699 142.74912 13584 ft 370 kts 126°
2026-05-04 07:45 46.78646 142.78306 13594 ft 370 kts 103°
2026-05-04 07:45 46.78137 142.82000 13580 ft 371 kts 101°
2026-05-04 07:45 46.77639 142.85738 13592 ft 371 kts 101°
2026-05-04 07:46 46.77154 142.89391 13594 ft 371 kts 101°
2026-05-04 07:46 46.76559 142.93042 13589 ft 370 kts 108°
2026-05-04 07:46 46.75657 142.96559 13582 ft 370 kts 113°
2026-05-04 07:46 46.74579 142.99963 13588 ft 369 kts 116°
2026-05-04 07:47 46.73421 143.03301 13594 ft 369 kts 117°
2026-05-04 07:47 46.72250 143.06623 13590 ft 369 kts 117°
2026-05-04 07:47 46.71091 143.09971 13806 ft 372 kts 117°
2026-05-04 07:49 46.63133 143.34384 17566 ft 393 kts 118°
2026-05-04 07:49 46.61958 143.37993 18064 ft 396 kts 118°
2026-05-04 07:49 46.60775 143.41612 18529 ft 399 kts 118°
2026-05-04 07:50 46.59817 143.45446 18987 ft 406 kts 108°
2026-05-04 07:50 46.59345 143.49528 19463 ft 414 kts 97°
2026-05-04 07:50 46.59403 143.53737 19922 ft 421 kts 86°
2026-05-04 07:50 46.59889 143.57958 20371 ft 425 kts 83°
2026-05-04 07:51 46.60403 143.62200 20816 ft 427 kts 83°
2026-05-04 07:51 46.60910 143.66471 21254 ft 430 kts 83°
2026-05-04 07:51 46.61414 143.70761 21680 ft 432 kts 83°
2026-05-04 07:51 46.61918 143.75072 22097 ft 434 kts 84°
2026-05-04 07:52 46.62423 143.79422 22530 ft 437 kts 84°
2026-05-04 07:52 46.62757 143.82308 22811 ft 438 kts 84°
2026-05-04 07:52 46.63435 143.88185 23333 ft 442 kts 84°
2026-05-04 07:52 46.63941 143.92606 23643 ft 445 kts 84°
2026-05-04 07:53 46.64451 143.97058 23942 ft 448 kts 84°
2026-05-04 07:54 46.68078 144.29151 25914 ft 472 kts 85°
2026-05-04 07:55 46.68434 144.32351 26109 ft 475 kts 85°
2026-05-04 07:55 46.68964 144.37117 26376 ft 478 kts 86°
2026-05-04 07:55 46.69489 144.41851 26647 ft 482 kts 86°
2026-05-04 07:55 46.70204 144.48330 26996 ft 487 kts 86°
2026-05-04 07:56 46.70740 144.53219 27292 ft 490 kts 86°
2026-05-04 07:56 46.71097 144.56473 27532 ft 491 kts 86°
2026-05-04 07:56 46.71638 144.61401 27882 ft 493 kts 87°
2026-05-04 07:56 46.72358 144.68017 28328 ft 496 kts 87°
2026-05-04 07:57 46.72712 144.71303 28551 ft 497 kts 87°
2026-05-04 07:57 46.73249 144.76296 28879 ft 500 kts 88°
2026-05-04 07:57 46.73786 144.81313 29214 ft 502 kts 88°
2026-05-04 07:57 46.74319 144.86346 29557 ft 504 kts 88°
2026-05-04 07:58 46.74851 144.91399 29844 ft 506 kts 89°
2026-05-04 07:58 46.75387 144.96487 30129 ft 508 kts 89°
2026-05-04 07:58 46.75929 145.01581 30429 ft 510 kts 87°
2026-05-04 07:58 46.76774 145.06660 30718 ft 521 kts 77°
2026-05-04 07:59 46.78155 145.11595 31012 ft 530 kts 67°
2026-05-04 07:59 46.80057 145.16239 31308 ft 536 kts 57°
2026-05-04 07:59 46.82442 145.20456 31618 ft 540 kts 46°
2026-05-04 07:59 46.85181 145.24214 31931 ft 541 kts 42°
2026-05-04 08:00 46.87965 145.27937 32265 ft 542 kts 42°
2026-05-04 08:00 46.90743 145.31669 32601 ft 543 kts 43°
2026-05-04 08:00 46.93524 145.35417 32953 ft 544 kts 43°
2026-05-04 08:02 47.12990 145.61788 35083 ft 543 kts 42°
2026-05-04 08:02 47.15760 145.65560 35356 ft 543 kts 42°
2026-05-04 08:02 47.18485 145.69285 35628 ft 542 kts 42°
2026-05-04 08:03 47.21245 145.73065 35888 ft 542 kts 42°
2026-05-04 08:03 47.23996 145.76845 36148 ft 542 kts 42°
2026-05-04 08:03 47.26750 145.80625 36396 ft 541 kts 42°
2026-05-04 08:03 47.29509 145.84409 36547 ft 543 kts 42°
2026-05-04 08:04 47.35085 145.92080 36576 ft 553 kts 42°
2026-05-04 08:04 47.40709 145.99853 36568 ft 555 kts 42°
2026-05-04 08:05 47.46344 146.07674 36571 ft 555 kts 42°
2026-05-04 08:05 47.51974 146.15496 36577 ft 556 kts 42°
2026-05-04 08:06 47.57585 146.23322 36587 ft 556 kts 42°
2026-05-04 08:06 47.63228 146.31212 36591 ft 556 kts 42°
2026-05-04 08:08 47.85679 146.62828 36620 ft 556 kts 42°
2026-05-04 08:11 48.10760 146.98648 36623 ft 555 kts 43°
2026-05-04 08:11 48.19093 147.10674 36620 ft 555 kts 43°
2026-05-04 08:12 48.24651 147.18715 36631 ft 555 kts 42°
2026-05-04 08:12 48.30201 147.26769 36630 ft 555 kts 43°
2026-05-04 08:13 48.35734 147.34837 36642 ft 555 kts 43°
2026-05-04 08:13 48.41275 147.42942 36644 ft 555 kts 43°
2026-05-04 08:14 48.46802 147.51045 36648 ft 555 kts 43°
2026-05-04 08:16 48.68873 147.83641 36668 ft 554 kts 43°
2026-05-04 08:16 48.74366 147.91835 36673 ft 554 kts 43°
2026-05-04 08:17 48.79844 148.00045 36671 ft 554 kts 43°
2026-05-04 08:17 48.85286 148.08213 36667 ft 554 kts 43°
2026-05-04 08:19 49.07178 148.41285 36684 ft 554 kts 43°
2026-05-04 08:20 49.12633 148.49602 36688 ft 554 kts 43°
2026-05-04 08:20 49.18076 148.57930 36694 ft 554 kts 43°
2026-05-04 08:21 49.23511 148.66285 36693 ft 553 kts 43°
2026-05-04 08:21 49.28901 148.74577 36695 ft 553 kts 43°
2026-05-04 08:22 49.34320 148.82942 36693 ft 553 kts 43°
2026-05-04 08:24 49.55907 149.16576 36690 ft 552 kts 43°
2026-05-04 08:24 49.61290 149.25024 36699 ft 552 kts 44°
2026-05-04 08:25 49.66666 149.33500 36711 ft 552 kts 44°
2026-05-04 08:25 49.72033 149.41983 36707 ft 551 kts 44°
2026-05-04 08:27 49.93321 149.75902 36714 ft 549 kts 44°
2026-05-04 08:28 49.98619 149.84439 36714 ft 548 kts 44°
2026-05-04 08:28 50.03930 149.93018 36717 ft 548 kts 44°
2026-05-04 08:29 50.09193 150.01534 36715 ft 547 kts 44°
2026-05-04 08:31 50.30173 150.35806 36721 ft 546 kts 44°
2026-05-04 08:33 50.51041 150.70367 36718 ft 545 kts 44°
2026-05-04 08:35 50.71725 151.05101 36728 ft 543 kts 45°
2026-05-04 08:35 50.76914 151.13875 36723 ft 543 kts 45°
2026-05-04 08:37 50.94820 151.44446 36721 ft 541 kts 45°
2026-05-04 08:38 50.99930 151.53232 36723 ft 541 kts 45°
2026-05-04 08:38 51.05030 151.62040 36725 ft 541 kts 45°
2026-05-04 08:40 51.25328 151.97378 36733 ft 539 kts 45°
2026-05-04 08:41 51.30361 152.06243 36726 ft 538 kts 45°
2026-05-04 08:41 51.35380 152.15100 36729 ft 538 kts 45°
2026-05-04 08:42 51.40369 152.23920 36731 ft 537 kts 45°
2026-05-04 08:42 51.45380 152.32794 36735 ft 537 kts 45°
2026-05-04 08:43 51.50376 152.41679 36735 ft 536 kts 45°
2026-05-04 08:43 51.55356 152.50590 36735 ft 536 kts 45°
2026-05-04 08:44 51.60326 152.59514 36736 ft 535 kts 45°
2026-05-04 08:46 51.80083 152.95279 36737 ft 532 kts 46°
2026-05-04 08:46 51.84166 153.02723 36738 ft 532 kts 46°
2026-05-04 08:47 51.89053 153.11699 36737 ft 531 kts 46°
2026-05-04 08:47 51.93941 153.20690 36738 ft 531 kts 46°
2026-05-04 08:48 51.98822 153.29672 36741 ft 530 kts 46°
2026-05-04 08:48 52.03686 153.38676 36742 ft 530 kts 46°
2026-05-04 08:49 52.08528 153.47695 36748 ft 530 kts 46°
2026-05-04 08:50 52.25428 153.79336 36753 ft 528 kts 46°
2026-05-04 08:51 52.30229 153.88394 36757 ft 527 kts 46°
2026-05-04 08:51 52.34987 153.97409 36753 ft 526 kts 47°
2026-05-04 08:52 52.39751 154.06481 36756 ft 525 kts 47°
2026-05-04 08:52 52.44504 154.15554 36760 ft 525 kts 47°
2026-05-04 08:54 52.62814 154.52689 36767 ft 524 kts 64°
2026-05-04 08:55 52.65070 154.64011 36763 ft 520 kts 82°
2026-05-04 08:55 52.66345 154.75647 36763 ft 519 kts 82°
2026-05-04 09:01 52.79013 155.99075 36289 ft 514 kts 82°
2026-05-04 09:01 52.79591 156.05079 34853 ft 534 kts 82°
2026-05-04 09:01 52.80171 156.11151 33981 ft 538 kts 82°
2026-05-04 09:01 52.80746 156.17237 32858 ft 548 kts 82°
2026-05-04 09:02 52.81334 156.23503 31774 ft 556 kts 82°
2026-05-04 09:02 52.82175 156.29775 30913 ft 559 kts 73°
2026-05-04 09:02 52.83266 156.35921 30272 ft 555 kts 73°
2026-05-04 09:02 52.84330 156.42056 29235 ft 551 kts 73°
2026-05-04 09:03 52.85361 156.48131 28043 ft 542 kts 74°
2026-05-04 09:03 52.86344 156.54012 27429 ft 522 kts 74°
2026-05-04 09:03 52.87294 156.59721 26756 ft 507 kts 74°
2026-05-04 09:03 52.88230 156.65329 26086 ft 502 kts 73°
2026-05-04 09:04 52.89158 156.70870 25431 ft 497 kts 73°
2026-05-04 09:04 52.90079 156.76360 24781 ft 493 kts 73°
2026-05-04 09:04 52.90993 156.81803 24133 ft 488 kts 73°
2026-05-04 09:04 52.91898 156.87207 23477 ft 484 kts 73°
2026-05-04 09:05 52.92790 156.92545 22759 ft 479 kts 73°
2026-05-04 09:05 52.93669 156.97818 22151 ft 470 kts 74°
2026-05-04 09:05 52.94527 157.02998 21599 ft 462 kts 74°
2026-05-04 09:05 52.95366 157.08096 20963 ft 456 kts 75°
2026-05-04 09:06 52.96192 157.13128 20406 ft 449 kts 75°
2026-05-04 09:07 53.01610 157.46497 16585 ft 409 kts 76°
2026-05-04 09:08 53.02338 157.51035 16015 ft 404 kts 76°
2026-05-04 09:08 53.03120 157.55483 15449 ft 399 kts 70°
2026-05-04 09:08 53.04345 157.59592 14878 ft 396 kts 58°
2026-05-04 09:08 53.06034 157.63169 14304 ft 393 kts 46°
2026-05-04 09:09 53.08096 157.66115 13727 ft 389 kts 37°
2026-05-04 09:09 53.10242 157.68835 13101 ft 385 kts 38°
2026-05-04 09:09 53.12355 157.71519 12530 ft 380 kts 38°
2026-05-04 09:09 53.14443 157.74179 11953 ft 375 kts 39°
2026-05-04 09:10 53.16498 157.76801 11385 ft 370 kts 39°
2026-05-04 09:10 53.18534 157.79401 10827 ft 367 kts 40°
2026-05-04 09:10 53.20542 157.81969 10451 ft 358 kts 40°
2026-05-04 09:10 53.22478 157.84443 10318 ft 343 kts 40°
2026-05-04 09:11 53.24341 157.86823 10200 ft 330 kts 40°
2026-05-04 09:11 53.26131 157.89118 10066 ft 319 kts 41°
2026-05-04 09:11 53.27861 157.91346 9844 ft 311 kts 41°
2026-05-04 09:11 53.29535 157.93507 9679 ft 306 kts 41°
2026-05-04 09:12 53.31221 157.95686 9441 ft 306 kts 41°
2026-05-04 09:12 53.32898 157.97855 9067 ft 304 kts 41°
2026-05-04 09:14 53.40570 158.15370 6418 ft 258 kts 107°
2026-05-04 09:14 53.40008 158.18225 5681 ft 257 kts 110°
2026-05-04 09:14 53.39449 158.20986 4987 ft 244 kts 109°
2026-05-04 09:14 53.38924 158.23611 4321 ft 233 kts 109°
2026-05-04 09:15 53.38424 158.26126 3744 ft 220 kts 109°
2026-05-04 09:15 53.37937 158.28426 3511 ft 200 kts 116°
2026-05-04 09:15 53.37187 158.30276 3409 ft 181 kts 133°
2026-05-04 09:15 53.36277 158.31504 3247 ft 159 kts 147°
2026-05-04 09:17 53.29032 158.36651 2246 ft 136 kts 156°
2026-05-04 09:18 53.28160 158.37259 2072 ft 136 kts 158°
2026-05-04 09:18 53.27288 158.37867 1892 ft 136 kts 159°
2026-05-04 09:18 53.26415 158.38475 1714 ft 137 kts 160°
2026-05-04 09:18 53.25538 158.39086 1529 ft 137 kts 161°
2026-05-04 09:19 53.24657 158.39700 1362 ft 137 kts 161°
2026-05-04 09:19 53.23779 158.40311 1197 ft 136 kts 162°
2026-05-04 09:19 53.22908 158.40917 1036 ft 135 kts 161°
2026-05-04 09:19 53.22032 158.41525 871 ft 137 kts 161°
2026-05-04 09:20 53.21158 158.42134 706 ft 136 kts 160°
2026-05-04 09:20 53.20281 158.42742 541 ft 137 kts 159°
2026-05-04 09:20 53.19404 158.43352 370 ft 137 kts 160°
2026-05-04 09:20 53.18525 158.43962 206 ft 137 kts 161°
2026-05-04 09:21 53.17708 158.44521 149 ft 97 kts 158°
2026-05-04 09:21 53.17253 158.44833 149 ft 49 kts 159°
2026-05-04 09:21 53.17000 158.45008 147 ft 36 kts 156°
2026-05-04 09:21 53.16776 158.45166 149 ft 35 kts 157°
2026-05-04 09:22 53.16601 158.45288 148 ft 12 kts 156°
2026-05-04 09:22 53.16507 158.45354 146 ft 17 kts 158°
2026-05-04 09:22 53.16390 158.45432 146 ft 18 kts 157°
2026-05-04 09:22 53.16267 158.45517 146 ft 13 kts 158°
2026-05-04 09:23 53.16176 158.45583 148 ft 15 kts 156°
2026-05-04 09:23 53.16087 158.45522 148 ft 16 kts 239°
2026-05-04 09:23 53.16076 158.45370 147 ft 14 kts 301°
2026-05-04 09:23 53.16154 158.45293 147 ft 12 kts 336°
2026-05-04 09:25 53.16751 158.44878 147 ft 11 kts 336°
2026-05-04 09:25 53.16831 158.44820 146 ft 14 kts 342°
2026-05-04 09:26 53.16932 158.44754 146 ft 17 kts 337°
2026-05-04 09:26 53.17035 158.44682 146 ft 16 kts 337°
2026-05-04 09:26 53.17115 158.44627 147 ft 13 kts 338°
2026-05-04 09:26 53.17197 158.44570 147 ft 3 kts 337°
2026-05-04 09:27 53.17198 158.44570 147 ft 0 kts 337°
2026-05-04 09:27 53.17199 158.44569 147 ft 1 kts 337°
2026-05-04 09:27 53.17212 158.44560 147 ft 3 kts 337°
2026-05-04 09:28 53.17242 158.44538 147 ft 6 kts 336°
2026-05-04 09:28 53.17288 158.44503 147 ft 9 kts 335°
2026-05-04 09:28 53.17354 158.44462 147 ft 11 kts 343°
2026-05-04 09:28 53.17437 158.44403 147 ft 14 kts 335°
2026-05-04 09:29 53.17514 158.44296 146 ft 16 kts 277°
2026-05-04 09:29 53.17477 158.44103 145 ft 19 kts 247°
2026-05-04 09:29 53.17410 158.43889 145 ft 22 kts 239°
2026-05-04 09:29 53.17341 158.43694 144 ft 17 kts 238°
2026-05-04 09:30 53.17275 158.43505 144 ft 20 kts 240°
2026-05-04 09:30 53.17199 158.43291 144 ft 23 kts 240°
2026-05-04 09:30 53.17114 158.43051 144 ft 25 kts 239°
2026-05-04 09:30 53.17036 158.42840 144 ft 14 kts 237°
2026-05-04 09:31 53.17010 158.42714 144 ft 6 kts 257°
2026-05-04 09:31 53.16996 158.42645 144 ft 2 kts 244°
2026-05-04 09:31 53.16987 158.42617 144 ft 3 kts 243°